Year,Month,Day,Hour,Minute,Value (Times are PST for temperature in C)
2018,12,04,00,00,4.30
2018,12,04,00,01,4.20
2018,12,04,00,02,4.20
2018,12,04,00,03,4.20
2018,12,04,00,04,4.20
2018,12,04,00,05,4.20
2018,12,04,00,06,4.20
2018,12,04,00,07,4.20
2018,12,04,00,08,4.20
2018,12,04,00,09,4.20
2018,12,04,00,10,4.20
2018,12,04,00,11,4.20
2018,12,04,00,12,4.10
2018,12,04,00,13,4.10
2018,12,04,00,14,4.10
2018,12,04,00,15,4.10
2018,12,04,00,16,4.10
2018,12,04,00,17,4.10
2018,12,04,00,18,4.10
2018,12,04,00,19,4.10
2018,12,04,00,20,4.10
2018,12,04,00,21,4.10
2018,12,04,00,22,4.10
2018,12,04,00,23,4.10
2018,12,04,00,24,4.10
2018,12,04,00,25,4.00
2018,12,04,00,26,4.00
2018,12,04,00,27,4.00
2018,12,04,00,28,4.00
2018,12,04,00,29,4.00
2018,12,04,00,30,4.00
2018,12,04,00,31,4.00
2018,12,04,00,32,4.00
2018,12,04,00,33,4.00
2018,12,04,00,34,4.10
2018,12,04,00,35,4.10
2018,12,04,00,36,4.10
2018,12,04,00,37,4.00
2018,12,04,00,38,4.10
2018,12,04,00,39,4.00
2018,12,04,00,40,4.00
2018,12,04,00,41,4.00
2018,12,04,00,42,4.00
2018,12,04,00,43,3.90
2018,12,04,00,44,3.90
2018,12,04,00,45,3.90
2018,12,04,00,46,3.90
2018,12,04,00,47,3.90
2018,12,04,00,48,3.90
2018,12,04,00,49,3.80
2018,12,04,00,50,3.80
2018,12,04,00,51,3.80
2018,12,04,00,52,3.80
2018,12,04,00,53,3.80
2018,12,04,00,54,3.80
2018,12,04,00,55,3.80
2018,12,04,00,56,3.90
2018,12,04,00,57,3.90
2018,12,04,00,58,3.90
2018,12,04,00,59,3.90
2018,12,04,01,00,3.90
2018,12,04,01,01,3.90
2018,12,04,01,02,4.00
2018,12,04,01,03,4.00
2018,12,04,01,04,4.00
2018,12,04,01,05,4.00
2018,12,04,01,06,4.00
2018,12,04,01,07,4.10
2018,12,04,01,08,4.10
2018,12,04,01,09,4.10
2018,12,04,01,10,4.10
2018,12,04,01,11,4.10
2018,12,04,01,12,4.10
2018,12,04,01,13,4.10
2018,12,04,01,14,4.10
2018,12,04,01,15,4.10
2018,12,04,01,16,4.10
2018,12,04,01,17,4.10
2018,12,04,01,18,4.10
2018,12,04,01,19,4.00
2018,12,04,01,20,4.00
2018,12,04,01,21,4.00
2018,12,04,01,22,4.00
2018,12,04,01,23,4.00
2018,12,04,01,24,4.00
2018,12,04,01,25,4.00
2018,12,04,01,26,4.00
2018,12,04,01,27,4.00
2018,12,04,01,28,4.00
2018,12,04,01,29,4.00
2018,12,04,01,30,3.90
2018,12,04,01,31,3.90
2018,12,04,01,32,3.90
2018,12,04,01,33,3.90
2018,12,04,01,34,3.90
2018,12,04,01,35,3.90
2018,12,04,01,36,3.90
2018,12,04,01,37,3.90
2018,12,04,01,38,3.90
2018,12,04,01,39,3.90
2018,12,04,01,40,4.00
2018,12,04,01,41,4.00
2018,12,04,01,42,4.00
2018,12,04,01,43,4.00
2018,12,04,01,44,4.00
2018,12,04,01,45,4.00
2018,12,04,01,46,4.00
2018,12,04,01,47,4.00
2018,12,04,01,48,4.00
2018,12,04,01,49,4.00
2018,12,04,01,50,4.00
2018,12,04,01,51,4.00
2018,12,04,01,52,4.00
2018,12,04,01,53,4.00
2018,12,04,01,54,4.00
2018,12,04,01,55,4.00
2018,12,04,01,56,4.00
2018,12,04,01,57,3.90
2018,12,04,01,58,3.80
2018,12,04,01,59,3.80
2018,12,04,02,00,3.80
2018,12,04,02,01,3.70
2018,12,04,02,02,3.70
2018,12,04,02,03,3.70
2018,12,04,02,04,3.60
2018,12,04,02,05,3.60
2018,12,04,02,06,3.60
2018,12,04,02,07,3.60
2018,12,04,02,08,3.50
2018,12,04,02,09,3.50
2018,12,04,02,10,3.50
2018,12,04,02,11,3.50
2018,12,04,02,12,3.50
2018,12,04,02,13,3.50
2018,12,04,02,14,3.50
2018,12,04,02,15,3.50
2018,12,04,02,16,3.60
2018,12,04,02,17,3.60
2018,12,04,02,18,3.60
2018,12,04,02,19,3.60
2018,12,04,02,20,3.60
2018,12,04,02,21,3.70
2018,12,04,02,22,3.70
2018,12,04,02,23,3.70
2018,12,04,02,24,3.70
2018,12,04,02,25,3.70
2018,12,04,02,26,3.70
2018,12,04,02,27,3.70
2018,12,04,02,28,3.70
2018,12,04,02,29,3.70
2018,12,04,02,30,3.70
2018,12,04,02,31,3.70
2018,12,04,02,32,3.70
2018,12,04,02,33,3.70
2018,12,04,02,34,3.70
2018,12,04,08,33,2.20
2018,12,04,08,34,2.20
2018,12,04,08,35,2.20
2018,12,04,08,36,2.20
2018,12,04,08,37,2.20
2018,12,04,08,38,2.20
2018,12,04,08,39,2.20
2018,12,04,08,40,2.30
2018,12,04,08,41,2.30
2018,12,04,08,42,2.30
2018,12,04,08,43,2.30
2018,12,04,08,44,2.30
2018,12,04,08,45,2.40
2018,12,04,08,46,2.40
2018,12,04,08,47,2.40
2018,12,04,08,48,2.50
2018,12,04,08,49,2.50
2018,12,04,08,50,2.60
2018,12,04,08,51,2.60
2018,12,04,08,52,2.70
2018,12,04,08,53,2.70
2018,12,04,08,54,2.70
2018,12,04,08,55,2.80
2018,12,04,08,56,2.80
2018,12,04,08,57,2.90
2018,12,04,08,58,2.90
2018,12,04,08,59,2.90
2018,12,04,09,00,3.00
2018,12,04,09,01,3.00
2018,12,04,09,02,3.10
2018,12,04,09,03,3.10
2018,12,04,09,04,3.10
2018,12,04,09,05,3.20
2018,12,04,09,06,3.20
2018,12,04,09,07,3.20
2018,12,04,09,08,3.30
2018,12,04,09,09,3.30
2018,12,04,09,10,3.30
2018,12,04,09,11,3.30
2018,12,04,09,12,3.40
2018,12,04,09,13,3.40
2018,12,04,09,14,3.40
2018,12,04,09,15,3.50
2018,12,04,09,16,3.50
2018,12,04,09,17,3.50
2018,12,04,09,18,3.60
2018,12,04,09,19,3.60
2018,12,04,09,20,3.60
2018,12,04,09,21,3.70
2018,12,04,09,22,3.70
2018,12,04,09,23,3.70
2018,12,04,09,24,3.70
2018,12,04,09,25,3.70
2018,12,04,09,26,3.70
2018,12,04,09,27,3.80
2018,12,04,09,28,3.80
2018,12,04,09,29,3.80
2018,12,04,09,30,3.80
2018,12,04,09,31,3.80
2018,12,04,09,32,3.80
2018,12,04,09,33,3.90
2018,12,04,09,34,3.90
2018,12,04,09,35,3.90
2018,12,04,09,36,3.90
2018,12,04,09,37,4.00
2018,12,04,09,38,4.00
2018,12,04,09,39,4.00
2018,12,04,09,40,4.10
2018,12,04,09,41,4.10
2018,12,04,09,42,4.10
2018,12,04,09,43,4.10
2018,12,04,09,44,4.20
2018,12,04,09,45,4.20
2018,12,04,09,46,4.20
2018,12,04,09,47,4.30
2018,12,04,09,48,4.30
2018,12,04,09,49,4.30
2018,12,04,09,50,4.30
2018,12,04,09,51,4.40
2018,12,04,09,52,4.40
2018,12,04,09,53,4.40
2018,12,04,09,54,4.40
2018,12,04,09,55,4.40
2018,12,04,09,56,4.40
2018,12,04,09,57,4.50
2018,12,04,09,58,4.50
2018,12,04,09,59,4.50
2018,12,04,10,00,4.50
2018,12,04,10,01,4.60
2018,12,04,10,02,4.60
2018,12,04,10,03,4.60
2018,12,04,10,04,4.60
2018,12,04,10,05,4.60
2018,12,04,10,06,4.60
2018,12,04,10,07,4.60
2018,12,04,10,08,4.60
2018,12,04,10,09,4.60
2018,12,04,10,10,4.60
2018,12,04,10,11,4.60
2018,12,04,10,12,4.60
2018,12,04,10,13,4.70
2018,12,04,10,14,4.70
2018,12,04,10,15,4.70
2018,12,04,10,16,4.70
2018,12,04,10,17,4.70
2018,12,04,10,18,4.70
2018,12,04,10,19,4.70
2018,12,04,10,20,4.80
2018,12,04,10,21,4.80
2018,12,04,10,22,4.80
2018,12,04,10,23,4.80
2018,12,04,10,24,4.80
2018,12,04,10,25,4.80
2018,12,04,10,26,4.80
2018,12,04,10,27,4.80
2018,12,04,10,28,4.80
2018,12,04,10,29,4.80
2018,12,04,10,30,4.80
2018,12,04,10,31,4.80
2018,12,04,10,32,4.90
2018,12,04,10,33,4.90
2018,12,04,10,34,4.90
2018,12,04,10,35,4.90
2018,12,04,10,36,4.90
2018,12,04,10,37,4.90
2018,12,04,10,38,5.00
2018,12,04,10,39,4.90
2018,12,04,10,40,4.90
2018,12,04,10,41,4.90
2018,12,04,10,42,4.90
2018,12,04,10,43,4.90
2018,12,04,10,44,4.90
2018,12,04,10,45,4.90
2018,12,04,10,46,5.00
2018,12,04,10,47,5.00
2018,12,04,10,48,5.10
2018,12,04,10,49,5.10
2018,12,04,10,50,5.10
2018,12,04,10,51,5.10
2018,12,04,10,52,5.10
2018,12,04,10,53,5.10
2018,12,04,10,54,5.10
2018,12,04,10,55,5.10
2018,12,04,10,56,5.10
2018,12,04,10,57,5.10
2018,12,04,10,58,5.10
2018,12,04,10,59,5.10
2018,12,04,11,00,5.10
2018,12,04,11,01,5.10
2018,12,04,11,02,5.10
2018,12,04,11,03,5.10
2018,12,04,11,04,5.10
2018,12,04,11,05,5.20
2018,12,04,11,06,5.20
2018,12,04,11,07,5.20
2018,12,04,11,08,5.20
2018,12,04,11,09,5.20
2018,12,04,11,10,5.20
2018,12,04,11,11,5.30
2018,12,04,11,12,5.20
2018,12,04,11,13,5.20
2018,12,04,11,14,5.20
2018,12,04,11,15,5.20
2018,12,04,11,16,5.20
2018,12,04,11,17,5.20
2018,12,04,11,18,5.20
2018,12,04,11,19,5.20
2018,12,04,11,20,5.20
2018,12,04,11,21,5.20
2018,12,04,11,22,5.20
2018,12,04,11,23,5.20
2018,12,04,11,24,5.20
2018,12,04,11,25,5.20
2018,12,04,11,26,5.30
2018,12,04,11,27,5.30
2018,12,04,11,28,5.30
2018,12,04,11,29,5.30
2018,12,04,11,30,5.30
2018,12,04,11,31,5.30
2018,12,04,11,32,5.30
2018,12,04,11,33,5.30
2018,12,04,11,34,5.30
2018,12,04,11,35,5.30
2018,12,04,11,36,5.30
2018,12,04,11,37,5.30
2018,12,04,11,38,5.30
2018,12,04,11,39,5.30
2018,12,04,11,40,5.30
2018,12,04,11,41,5.30
2018,12,04,11,42,5.30
2018,12,04,11,43,5.30
2018,12,04,11,44,5.30
2018,12,04,11,45,5.30
2018,12,04,11,46,5.30
2018,12,04,11,47,5.30
2018,12,04,11,48,5.30
2018,12,04,11,49,5.30
2018,12,04,11,50,5.30
2018,12,04,11,51,5.30
2018,12,04,11,52,5.30
2018,12,04,11,53,5.30
2018,12,04,11,54,5.40
2018,12,04,11,55,5.40
2018,12,04,11,56,5.40
2018,12,04,11,57,5.40
2018,12,04,11,58,5.40
2018,12,04,11,59,5.40
2018,12,04,12,00,5.40
2018,12,04,12,01,5.50
2018,12,04,12,02,5.40
2018,12,04,12,03,5.40
2018,12,04,12,04,5.40
2018,12,04,12,05,5.40
2018,12,04,12,06,5.40
2018,12,04,12,07,5.40
2018,12,04,12,08,5.30
2018,12,04,12,09,5.30
2018,12,04,12,10,5.30
2018,12,04,12,11,5.30
2018,12,04,12,12,5.30
2018,12,04,12,13,5.30
2018,12,04,12,14,5.30
2018,12,04,12,15,5.30
2018,12,04,12,16,5.30
2018,12,04,12,17,5.30
2018,12,04,12,18,5.40
2018,12,04,12,19,5.40
2018,12,04,12,20,5.40
2018,12,04,12,21,5.40
2018,12,04,12,22,5.40
2018,12,04,12,23,5.40
2018,12,04,12,24,5.40
2018,12,04,12,25,5.40
2018,12,04,12,26,5.40
2018,12,04,12,27,5.40
2018,12,04,12,28,5.40
2018,12,04,12,29,5.40
2018,12,04,12,30,5.40
2018,12,04,12,31,5.40
2018,12,04,12,32,5.40
2018,12,04,12,33,5.40
2018,12,04,12,34,5.40
2018,12,04,12,35,5.30
2018,12,04,12,36,5.30
2018,12,04,12,37,5.30
2018,12,04,12,38,5.30
2018,12,04,12,39,5.30
2018,12,04,12,40,5.40
2018,12,04,12,41,5.40
2018,12,04,12,42,5.40
2018,12,04,12,43,5.40
2018,12,04,12,44,5.50
2018,12,04,12,45,5.50
2018,12,04,12,46,5.50
2018,12,04,12,47,5.50
2018,12,04,12,48,5.50
2018,12,04,12,49,5.40
2018,12,04,12,50,5.40
2018,12,04,12,51,5.40
2018,12,04,12,52,5.40
2018,12,04,12,53,5.40
2018,12,04,12,54,5.40
2018,12,04,12,55,5.40
2018,12,04,12,56,5.40
2018,12,04,12,57,5.40
2018,12,04,12,58,5.40
2018,12,04,12,59,5.40
2018,12,04,13,00,5.40
2018,12,04,13,01,5.40
2018,12,04,13,02,5.40
2018,12,04,13,03,5.40
2018,12,04,13,04,5.40
2018,12,04,13,05,5.40
2018,12,04,13,06,5.40
2018,12,04,13,07,5.40
2018,12,04,13,08,5.40
2018,12,04,13,09,5.40
2018,12,04,13,10,5.40
2018,12,04,13,11,5.40
2018,12,04,13,12,5.40
2018,12,04,13,13,5.50
2018,12,04,13,14,5.50
2018,12,04,13,15,5.50
2018,12,04,13,16,5.60
2018,12,04,13,17,5.60
2018,12,04,13,18,5.60
2018,12,04,13,19,5.60
2018,12,04,13,20,5.60
2018,12,04,13,21,5.60
2018,12,04,13,22,5.60
2018,12,04,13,23,5.60
2018,12,04,13,24,5.60
2018,12,04,13,25,5.60
2018,12,04,13,26,5.60
2018,12,04,13,27,5.60
2018,12,04,13,28,5.60
2018,12,04,13,29,5.50
2018,12,04,13,30,5.60
2018,12,04,13,31,5.60
2018,12,04,13,32,5.60
2018,12,04,13,33,5.60
2018,12,04,13,34,5.60
2018,12,04,13,35,5.60
2018,12,04,13,36,5.60
2018,12,04,13,37,5.60
2018,12,04,13,38,5.60
2018,12,04,13,39,5.60
2018,12,04,13,40,5.60
2018,12,04,13,41,5.60
2018,12,04,13,42,5.70
2018,12,04,13,43,5.70
2018,12,04,13,44,5.70
2018,12,04,13,45,5.70
2018,12,04,13,46,5.70
2018,12,04,13,47,5.70
2018,12,04,13,48,5.70
2018,12,04,13,49,5.70
2018,12,04,13,50,5.70
2018,12,04,13,51,5.70
2018,12,04,13,52,5.70
2018,12,04,13,53,5.60
2018,12,04,13,54,5.60
2018,12,04,13,55,5.60
2018,12,04,13,56,5.60
2018,12,04,13,57,5.60
2018,12,04,13,58,5.60
2018,12,04,13,59,5.60
2018,12,04,14,00,5.70
2018,12,04,14,01,5.70
2018,12,04,14,02,5.70
2018,12,04,14,03,5.70
2018,12,04,14,04,5.70
2018,12,04,14,05,5.70
2018,12,04,14,06,5.70
2018,12,04,14,07,5.70
2018,12,04,14,08,5.70
2018,12,04,14,09,5.70
2018,12,04,14,10,5.70
2018,12,04,14,11,5.70
2018,12,04,14,12,5.70
2018,12,04,14,13,5.70
2018,12,04,14,14,5.70
2018,12,04,14,15,5.70
2018,12,04,14,16,5.70
2018,12,04,14,17,5.70
2018,12,04,14,18,5.70
2018,12,04,14,19,5.70
2018,12,04,14,20,5.70
2018,12,04,14,21,5.70
2018,12,04,14,22,5.60
2018,12,04,14,23,5.60
2018,12,04,14,24,5.60
2018,12,04,14,25,5.60
2018,12,04,14,26,5.70
2018,12,04,14,27,5.70
2018,12,04,14,28,5.70
2018,12,04,14,29,5.70
2018,12,04,14,30,5.70
2018,12,04,14,31,5.70
2018,12,04,14,32,5.70
2018,12,04,14,33,5.70
2018,12,04,14,34,5.60
2018,12,04,14,35,5.60
2018,12,04,14,36,5.70
2018,12,04,14,37,5.70
2018,12,04,14,38,5.70
2018,12,04,14,39,5.60
2018,12,04,14,40,5.60
2018,12,04,14,41,5.60
2018,12,04,14,42,5.60
2018,12,04,14,43,5.60
2018,12,04,14,44,5.60
2018,12,04,14,45,5.60
2018,12,04,14,46,5.50
2018,12,04,14,47,5.60
2018,12,04,14,48,5.60
2018,12,04,14,49,5.60
2018,12,04,14,50,5.60
2018,12,04,14,51,5.60
2018,12,04,14,52,5.60
2018,12,04,14,53,5.60
2018,12,04,14,54,5.70
2018,12,04,14,55,5.70
2018,12,04,14,56,5.70
2018,12,04,14,57,5.70
2018,12,04,14,58,5.70
2018,12,04,14,59,5.70
2018,12,04,15,00,5.70
2018,12,04,15,01,5.60
2018,12,04,15,02,5.70
2018,12,04,15,03,5.70
2018,12,04,15,04,5.70
2018,12,04,15,05,5.60
2018,12,04,15,06,5.60
2018,12,04,15,07,5.60
2018,12,04,15,08,5.60
2018,12,04,15,09,5.60
2018,12,04,15,10,5.50
2018,12,04,15,11,5.50
2018,12,04,15,12,5.50
2018,12,04,15,13,5.50
2018,12,04,15,14,5.50
2018,12,04,15,15,5.50
2018,12,04,15,16,5.50
2018,12,04,15,17,5.50
2018,12,04,15,18,5.50
2018,12,04,15,19,5.50
2018,12,04,15,20,5.40
2018,12,04,15,21,5.40
2018,12,04,15,22,5.40
2018,12,04,15,23,5.40
2018,12,04,15,24,5.40
2018,12,04,15,25,5.40
2018,12,04,15,26,5.40
2018,12,04,15,27,5.40
2018,12,04,15,28,5.40
2018,12,04,15,29,5.40
2018,12,04,15,30,5.40
2018,12,04,15,31,5.40
2018,12,04,15,32,5.40
2018,12,04,15,33,5.40
2018,12,04,15,34,5.40
2018,12,04,15,35,5.30
2018,12,04,15,36,5.30
2018,12,04,15,37,5.30
2018,12,04,15,38,5.30
2018,12,04,15,39,5.30
2018,12,04,15,40,5.30
2018,12,04,15,41,5.20
2018,12,04,15,42,5.20
2018,12,04,15,43,5.20
2018,12,04,15,44,5.20
2018,12,04,15,45,5.20
2018,12,04,15,46,5.10
2018,12,04,15,47,5.10
2018,12,04,15,48,5.10
2018,12,04,15,49,5.10
2018,12,04,15,50,5.00
2018,12,04,15,51,5.00
2018,12,04,15,52,5.00
2018,12,04,15,53,5.00
2018,12,04,15,54,4.90
2018,12,04,15,55,4.90
2018,12,04,15,56,4.90
2018,12,04,15,57,4.90
2018,12,04,15,58,4.80
2018,12,04,15,59,4.80
2018,12,04,16,00,4.80
2018,12,04,16,01,4.80
2018,12,04,16,02,4.80
2018,12,04,16,03,4.80
2018,12,04,16,04,4.80
2018,12,04,16,05,4.80
2018,12,04,16,06,4.80
2018,12,04,16,07,4.80
2018,12,04,16,08,4.70
2018,12,04,16,09,4.70
2018,12,04,16,10,4.70
2018,12,04,16,11,4.70
2018,12,04,16,12,4.60
2018,12,04,16,13,4.60
2018,12,04,16,14,4.60
2018,12,04,16,15,4.60
2018,12,04,16,16,4.60
2018,12,04,16,17,4.60
2018,12,04,16,18,4.60
2018,12,04,16,19,4.60
2018,12,04,16,20,4.60
2018,12,04,16,21,4.50
2018,12,04,16,22,4.50
2018,12,04,16,23,4.50
2018,12,04,16,24,4.50
2018,12,04,16,25,4.50
2018,12,04,16,26,4.40
2018,12,04,16,27,4.40
2018,12,04,16,28,4.40
2018,12,04,16,29,4.40
2018,12,04,16,30,4.40
2018,12,04,16,31,4.40
2018,12,04,16,32,4.40
2018,12,04,16,33,4.40
2018,12,04,16,34,4.30
2018,12,04,16,35,4.30
2018,12,04,16,36,4.30
2018,12,04,16,37,4.30
2018,12,04,16,38,4.30
2018,12,04,16,39,4.30
2018,12,04,16,40,4.30
2018,12,04,16,41,4.30
2018,12,04,16,42,4.30
2018,12,04,16,43,4.20
2018,12,04,16,44,4.20
2018,12,04,16,45,4.20
2018,12,04,16,46,4.20
2018,12,04,16,47,4.20
2018,12,04,16,48,4.20
2018,12,04,16,49,4.20
2018,12,04,16,50,4.10
2018,12,04,16,51,4.10
2018,12,04,16,52,4.10
2018,12,04,16,53,4.10
2018,12,04,16,54,4.10
2018,12,04,16,55,4.10
2018,12,04,16,56,4.10
2018,12,04,16,57,4.00
2018,12,04,16,58,4.00
2018,12,04,16,59,4.00
2018,12,04,17,00,4.00
2018,12,04,17,01,3.90
2018,12,04,17,02,3.90
2018,12,04,17,03,3.90
2018,12,04,17,04,3.90
2018,12,04,17,05,3.90
2018,12,04,17,06,3.90
2018,12,04,17,07,3.90
2018,12,04,17,08,3.90
2018,12,04,17,09,3.90
2018,12,04,17,10,3.90
2018,12,04,17,11,3.90
2018,12,04,17,12,3.80
2018,12,04,17,13,3.80
2018,12,04,17,14,3.80
2018,12,04,17,15,3.80
2018,12,04,17,16,3.80
2018,12,04,17,17,3.80
2018,12,04,17,18,3.80
2018,12,04,17,19,3.80
2018,12,04,17,20,3.80
2018,12,04,17,21,3.80
2018,12,04,17,22,3.80
2018,12,04,17,23,3.80
2018,12,04,17,24,3.80
2018,12,04,17,25,3.80
2018,12,04,17,26,3.80
2018,12,04,17,27,3.80
2018,12,04,17,28,3.80
2018,12,04,17,29,3.70
2018,12,04,17,30,3.70
2018,12,04,17,31,3.70
2018,12,04,17,32,3.70
2018,12,04,17,33,3.70
2018,12,04,17,34,3.70
2018,12,04,17,35,3.70
2018,12,04,17,36,3.70
2018,12,04,17,37,3.70
2018,12,04,17,38,3.70
2018,12,04,17,39,3.70
2018,12,04,17,40,3.70
2018,12,04,17,41,3.70
2018,12,04,17,42,3.70
2018,12,04,17,43,3.70
2018,12,04,17,44,3.70
2018,12,04,17,45,3.70
2018,12,04,17,46,3.60
2018,12,04,17,47,3.60
2018,12,04,17,48,3.60
2018,12,04,17,49,3.60
2018,12,04,17,50,3.60
2018,12,04,17,51,3.60
2018,12,04,17,52,3.60
2018,12,04,17,53,3.60
2018,12,04,17,54,3.60
2018,12,04,17,55,3.60
2018,12,04,17,56,3.60
2018,12,04,17,57,3.60
2018,12,04,17,58,3.60
2018,12,04,17,59,3.60
2018,12,04,18,00,3.60
2018,12,04,18,01,3.60
2018,12,04,18,02,3.60
2018,12,04,18,03,3.50
2018,12,04,18,04,3.50
2018,12,04,18,05,3.50
2018,12,04,18,06,3.50
2018,12,04,18,07,3.50
2018,12,04,18,08,3.50
2018,12,04,18,09,3.50
2018,12,04,18,10,3.40
2018,12,04,18,11,3.40
2018,12,04,18,12,3.40
2018,12,04,18,13,3.40
2018,12,04,18,14,3.40
2018,12,04,18,15,3.40
2018,12,04,18,16,3.40
2018,12,04,18,17,3.40
2018,12,04,18,18,3.30
2018,12,04,18,19,3.30
2018,12,04,18,20,3.30
2018,12,04,18,21,3.30
2018,12,04,18,22,3.30
2018,12,04,18,23,3.30
2018,12,04,18,24,3.30
2018,12,04,18,25,3.30
2018,12,04,18,26,3.30
2018,12,04,18,27,3.30
2018,12,04,18,28,3.30
2018,12,04,18,29,3.30
2018,12,04,18,30,3.30
2018,12,04,18,31,3.30
2018,12,04,18,32,3.30
2018,12,04,18,33,3.30
2018,12,04,18,34,3.30
2018,12,04,18,35,3.30
2018,12,04,18,36,3.30
2018,12,04,18,37,3.20
2018,12,04,18,38,3.20
2018,12,04,18,39,3.20
2018,12,04,18,40,3.20
2018,12,04,18,41,3.20
2018,12,04,18,42,3.20
2018,12,04,18,43,3.20
2018,12,04,18,44,3.20
2018,12,04,18,45,3.20
2018,12,04,18,46,3.20
2018,12,04,18,47,3.20
2018,12,04,18,48,3.20
2018,12,04,18,49,3.20
2018,12,04,18,50,3.20
2018,12,04,18,51,3.20
2018,12,04,18,52,3.20
2018,12,04,18,53,3.20
2018,12,04,18,54,3.20
2018,12,04,18,55,3.20
2018,12,04,18,56,3.20
2018,12,04,18,57,3.20
2018,12,04,18,58,3.20
2018,12,04,18,59,3.20
2018,12,04,19,00,3.20
2018,12,04,19,01,3.20
2018,12,04,19,02,3.20
2018,12,04,19,03,3.20
2018,12,04,19,04,3.20
2018,12,04,19,05,3.10
2018,12,04,19,06,3.10
2018,12,04,19,07,3.10
2018,12,04,19,08,3.10
2018,12,04,19,09,3.10
2018,12,04,19,10,3.10
2018,12,04,19,11,3.10
2018,12,04,19,12,3.10
2018,12,04,19,13,3.10
2018,12,04,19,14,3.10
2018,12,04,19,15,3.10
2018,12,04,19,16,3.10
2018,12,04,19,17,3.10
2018,12,04,19,18,3.10
2018,12,04,19,19,3.10
2018,12,04,19,20,3.10
2018,12,04,19,21,3.10
2018,12,04,19,22,3.00
2018,12,04,19,23,3.00
2018,12,04,19,24,3.00
2018,12,04,19,25,3.00
2018,12,04,19,26,3.00
2018,12,04,19,27,3.00
2018,12,04,19,28,3.00
2018,12,04,19,29,3.00
2018,12,04,19,30,2.90
2018,12,04,19,31,2.90
2018,12,04,19,32,2.90
2018,12,04,19,33,2.90
2018,12,04,19,34,2.90
2018,12,04,19,35,2.90
2018,12,04,19,36,2.90
2018,12,04,19,37,2.90
2018,12,04,19,38,2.90
2018,12,04,19,39,2.90
2018,12,04,19,40,2.90
2018,12,04,19,41,2.90
2018,12,04,19,42,2.90
2018,12,04,19,43,2.90
2018,12,04,19,44,2.90
2018,12,04,19,45,2.90
2018,12,04,19,46,2.90
2018,12,04,19,47,2.90
2018,12,04,19,48,2.90
2018,12,04,19,49,2.90
2018,12,04,19,50,2.90
2018,12,04,19,51,2.90
2018,12,04,19,52,2.90
2018,12,04,19,53,2.90
2018,12,04,19,54,2.90
2018,12,04,19,55,2.90
2018,12,04,19,56,2.90
2018,12,04,19,57,2.90
2018,12,04,19,58,2.90
2018,12,04,19,59,2.80
2018,12,04,20,00,2.80
2018,12,04,20,01,2.80
2018,12,04,20,02,2.80
2018,12,04,20,03,2.80
2018,12,04,20,04,2.80
2018,12,04,20,05,2.80
2018,12,04,20,06,2.80
2018,12,04,20,07,2.80
2018,12,04,20,08,2.80
2018,12,04,20,09,2.70
2018,12,04,20,10,2.70
2018,12,04,20,11,2.70
2018,12,04,20,12,2.70
2018,12,04,20,13,2.70
2018,12,04,20,14,2.70
2018,12,04,20,15,2.70
2018,12,04,20,16,2.70
2018,12,04,20,17,2.70
2018,12,04,20,18,2.70
2018,12,04,20,19,2.70
2018,12,04,20,20,2.70
2018,12,04,20,21,2.70
2018,12,04,20,22,2.70
2018,12,04,20,23,2.70
2018,12,04,20,24,2.70
2018,12,04,20,25,2.70
2018,12,04,20,26,2.70
2018,12,04,20,27,2.70
2018,12,04,20,28,2.70
2018,12,04,20,29,2.70
2018,12,04,20,30,2.70
2018,12,04,20,31,2.70
2018,12,04,20,32,2.70
2018,12,04,20,33,2.70
2018,12,04,20,34,2.70
2018,12,04,20,35,2.70
2018,12,04,20,36,2.70
2018,12,04,20,37,2.70
2018,12,04,20,38,2.70
2018,12,04,20,39,2.70
2018,12,04,20,40,2.70
2018,12,04,20,41,2.70
2018,12,04,20,42,2.70
2018,12,04,20,43,2.70
2018,12,04,20,44,2.70
2018,12,04,20,45,2.70
2018,12,04,20,46,2.70
2018,12,04,20,47,2.70
2018,12,04,20,48,2.70
2018,12,04,20,49,2.70
2018,12,04,20,50,2.70
2018,12,04,20,51,2.70
2018,12,04,20,52,2.70
2018,12,04,20,53,2.60
2018,12,04,20,54,2.60
2018,12,04,20,55,2.60
2018,12,04,20,56,2.60
2018,12,04,20,57,2.60
2018,12,04,20,58,2.60
2018,12,04,20,59,2.60
2018,12,04,21,00,2.60
2018,12,04,21,01,2.60
2018,12,04,21,02,2.60
2018,12,04,21,03,2.60
2018,12,04,21,04,2.60
2018,12,04,21,05,2.60
2018,12,04,21,06,2.60
2018,12,04,21,07,2.60
2018,12,04,21,08,2.60
2018,12,04,21,09,2.60
2018,12,04,21,10,2.60
2018,12,04,21,11,2.60
2018,12,04,21,12,2.60
2018,12,04,21,13,2.60
2018,12,04,21,14,2.60
2018,12,04,21,15,2.60
2018,12,04,21,16,2.60
2018,12,04,21,17,2.60
2018,12,04,21,18,2.60
2018,12,04,21,19,2.60
2018,12,04,21,20,2.60
2018,12,04,21,21,2.60
2018,12,04,21,22,2.60
2018,12,04,21,23,2.60
2018,12,04,21,24,2.60
2018,12,04,21,25,2.60
2018,12,04,21,26,2.60
2018,12,04,21,27,2.60
2018,12,04,21,28,2.60
2018,12,04,21,29,2.60
2018,12,04,21,30,2.60
2018,12,04,21,31,2.60
2018,12,04,21,32,2.60
2018,12,04,21,33,2.60
2018,12,04,21,34,2.60
2018,12,04,21,35,2.60
2018,12,04,21,36,2.60
2018,12,04,21,37,2.60
2018,12,04,21,38,2.60
2018,12,04,21,39,2.50
2018,12,04,21,40,2.50
2018,12,04,21,41,2.50
2018,12,04,21,42,2.50
2018,12,04,21,43,2.50
2018,12,04,21,44,2.50
2018,12,04,21,45,2.50
2018,12,04,21,46,2.50
2018,12,04,21,47,2.50
2018,12,04,21,48,2.50
2018,12,04,21,49,2.50
2018,12,04,21,50,2.50
2018,12,04,21,51,2.50
2018,12,04,21,52,2.50
2018,12,04,21,53,2.50
2018,12,04,21,54,2.50
2018,12,04,21,55,2.50
2018,12,04,21,56,2.50
2018,12,04,21,57,2.50
2018,12,04,21,58,2.50
2018,12,04,21,59,2.50
2018,12,04,22,00,2.50
2018,12,04,22,01,2.50
2018,12,04,22,02,2.50
2018,12,04,22,03,2.50
2018,12,04,22,04,2.50
2018,12,04,22,05,2.50
2018,12,04,22,06,2.40
2018,12,04,22,07,2.40
2018,12,04,22,08,2.40
2018,12,04,22,09,2.40
2018,12,04,22,10,2.40
2018,12,04,22,11,2.40
2018,12,04,22,12,2.40
2018,12,04,22,13,2.40
2018,12,04,22,14,2.40
2018,12,04,22,15,2.40
2018,12,04,22,16,2.40
2018,12,04,22,17,2.40
2018,12,04,22,18,2.40
2018,12,04,22,19,2.40
2018,12,04,22,20,2.40
2018,12,04,22,21,2.40
2018,12,04,22,22,2.40
2018,12,04,22,23,2.40
2018,12,04,22,24,2.40
2018,12,04,22,25,2.40
2018,12,04,22,26,2.40
2018,12,04,22,27,2.40
2018,12,04,22,28,2.40
2018,12,04,22,29,2.40
2018,12,04,22,30,2.40
2018,12,04,22,31,2.40
2018,12,04,22,32,2.40
2018,12,04,22,33,2.40
2018,12,04,22,34,2.30
2018,12,04,22,35,2.30
2018,12,04,22,36,2.40
2018,12,04,22,37,2.30
2018,12,04,22,38,2.30
2018,12,04,22,39,2.30
2018,12,04,22,40,2.40
2018,12,04,22,41,2.40
2018,12,04,22,42,2.30
2018,12,04,22,43,2.30
2018,12,04,22,44,2.30
2018,12,04,22,45,2.30
2018,12,04,22,46,2.30
2018,12,04,22,47,2.30
2018,12,04,22,48,2.30
2018,12,04,22,49,2.30
2018,12,04,22,50,2.30
2018,12,04,22,51,2.40
2018,12,04,22,52,2.40
2018,12,04,22,53,2.40
2018,12,04,22,54,2.40
2018,12,04,22,55,2.40
2018,12,04,22,56,2.40
2018,12,04,22,57,2.40
2018,12,04,22,58,2.40
2018,12,04,22,59,2.40
2018,12,04,23,00,2.40
2018,12,04,23,01,2.40
2018,12,04,23,02,2.40
2018,12,04,23,03,2.40
2018,12,04,23,04,2.30
2018,12,04,23,05,2.30
2018,12,04,23,06,2.30
2018,12,04,23,07,2.30
2018,12,04,23,08,2.30
2018,12,04,23,09,2.30
2018,12,04,23,10,2.30
2018,12,04,23,11,2.30
2018,12,04,23,12,2.30
2018,12,04,23,13,2.30
2018,12,04,23,14,2.30
2018,12,04,23,15,2.40
2018,12,04,23,16,2.40
2018,12,04,23,17,2.40
2018,12,04,23,18,2.40
2018,12,04,23,19,2.40
2018,12,04,23,20,2.40
2018,12,04,23,21,2.40
2018,12,04,23,22,2.40
2018,12,04,23,23,2.40
2018,12,04,23,24,2.40
2018,12,04,23,25,2.40
2018,12,04,23,26,2.40
2018,12,04,23,27,2.40
2018,12,04,23,28,2.40
2018,12,04,23,29,2.40
2018,12,04,23,30,2.30
2018,12,04,23,31,2.30
2018,12,04,23,32,2.30
2018,12,04,23,33,2.30
2018,12,04,23,34,2.30
2018,12,04,23,35,2.30
2018,12,04,23,36,2.30
2018,12,04,23,37,2.30
2018,12,04,23,38,2.30
2018,12,04,23,39,2.30
2018,12,04,23,40,2.20
2018,12,04,23,41,2.20
2018,12,04,23,42,2.20
2018,12,04,23,43,2.20
2018,12,04,23,44,2.20
2018,12,04,23,45,2.20
2018,12,04,23,46,2.20
2018,12,04,23,47,2.20
2018,12,04,23,48,2.20
2018,12,04,23,49,2.20
2018,12,04,23,50,2.20
2018,12,04,23,51,2.20
2018,12,04,23,52,2.20
2018,12,04,23,53,2.20
2018,12,04,23,54,2.20
2018,12,04,23,55,2.10
2018,12,04,23,56,2.10
2018,12,04,23,57,2.10
2018,12,04,23,58,2.10
2018,12,04,23,59,2.10
